Theta_e
319 320 320 319 318 317 319 320 321 320 320 320 320 319 319 320 319 319 318 317 316 315 313 310 308 307 306 306 306 306 306 306 308 310 311 310 308 309 310 309 309 313 314 313 312 312 311 311 312 312 318 318 315 318 314 316 323 329 338 333 323 324 325 321 321 319 317 320 317 313 313 318 319 312 310 308 312 315 313 317 315 317 321 319 319 320 324 331
319 319 319 318 318 318 320 320 320 320 320 320 319 319 319 319 319 318 317 316 315 314 312 310 308 307 306 306 306 306 306 307 309 310 311 309 309 310 309 309 310 313 313 311 312 312 311 311 311 313 321 321 314 317 317 315 321 334 335 327 329 332 325 320 322 319 315 316 317 315 312 315 317 313 311 312 316 315 314 317 315 319 322 320 321 320 326 331
319 319 318 317 318 318 320 320 319 319 319 319 319 319 318 319 318 318 317 316 314 312 310 308 307 307 306 306 306 306 307 308 309 310 310 308 309 309 310 309 310 313 313 311 312 311 311 312 310 314 322 320 316 318 321 318 318 326 330 328 335 336 322 317 319 318 315 314 318 316 310 312 313 312 312 313 317 315 317 319 314 319 320 326 324 319 326 330
318 319 318 318 318 319 319 318 319 319 319 319 318 319 318 318 317 317 317 315 313 310 309 308 306 306 306 306 306 308 308 308 308 309 309 309 308 308 310 311 311 313 313 311 311 311 311 311 310 317 321 319 318 318 319 318 316 318 326 331 330 326 319 316 316 317 315 313 316 316 312 313 311 310 312 314 316 315 319 318 315 319 319 331 327 319 326 329
318 318 318 318 319 319 318 318 318 319 319 318 318 318 317 317 317 316 315 314 311 308 308 308 306 306 306 306 307 308 308 309 309 310 309 309 308 309 311 313 314 313 312 311 310 310 310 310 312 318 321 318 318 319 317 314 315 316 318 323 323 318 316 314 313 315 314 312 314 316 314 313 310 311 314 315 316 319 320 315 316 316 315 332 329 321 327 328
318 318 319 318 318 318 317 317 317 318 318 318 318 317 317 317 316 315 315 313 310 308 308 308 307 306 306 306 308 309 309 310 311 313 313 310 308 309 312 315 316 313 312 312 310 310 311 311 313 316 319 319 317 318 316 311 314 320 316 316 318 316 315 314 312 312 312 313 315 315 313 312 312 312 313 314 315 318 315 310 310 308 309 322 324 322 327 329
318 318 319 318 317 317 316 316 317 318 318 317 317 317 316 316 315 315 315 314 310 308 308 308 307 306 307 307 309 310 311 311 311 314 316 312 309 311 314 316 317 314 312 311 309 311 313 313 315 316 319 319 316 315 315 312 314 323 319 314 316 313 313 312 312 312 310 314 315 312 310 312 315 313 309 311 315 315 309 303 303 305 310 319 322 324 327 329
318 318 318 317 316 315 315 316 316 317 317 317 316 315 315 315 315 315 315 314 310 308 307 308 307 306 307 308 311 312 311 311 312 314 316 314 313 313 314 315 315 313 312 310 310 312 313 314 314 313 316 316 315 313 312 313 316 321 317 314 314 312 312 311 312 314 312 312 311 310 312 313 314 310 309 314 318 314 307 307 311 313 318 323 323 325 326 327
319 318 317 316 314 314 316 316 316 317 316 315 315 314 315 314 314 314 314 313 310 308 307 307 307 306 308 309 310 311 310 311 312 314 315 314 313 312 312 312 312 312 312 311 311 311 311 314 313 313 314 311 312 314 313 315 316 318 317 315 315 313 313 311 313 315 313 312 310 312 314 313 310 308 312 318 316 311 309 321 329 327 335 334 325 323 324 326
318 317 316 315 313 314 316 316 316 316 315 314 314 314 315 314 314 314 313 312 309 308 306 307 307 307 309 308 308 308 310 313 313 313 315 313 311 311 312 311 311 312 312 311 309 310 311 313 311 310 312 311 311 313 313 314 314 316 317 315 315 314 313 313 313 314 314 313 312 314 315 313 309 310 315 316 310 308 314 330 332 333 345 338 325 321 323 324
317 316 315 314 313 313 315 315 315 315 314 314 314 314 314 313 314 314 313 312 309 308 306 307 307 308 309 308 307 307 311 315 314 314 313 312 311 311 312 311 311 312 311 310 309 310 311 310 307 308 311 311 311 312 311 312 312 314 317 315 314 313 313 314 314 314 314 312 311 314 314 313 310 312 318 314 307 309 316 327 330 335 339 330 324 322 320 321
317 316 314 314 313 313 314 315 314 314 314 314 314 314 313 313 313 313 313 311 309 308 306 307 307 309 309 306 306 308 312 315 315 313 311 311 311 311 312 312 311 312 311 310 310 311 311 309 309 311 312 311 312 312 312 312 312 314 316 315 314 316 314 312 313 314 314 312 313 314 311 313 313 315 319 312 307 310 314 319 326 332 331 324 323 322 320 319
317 315 314 314 313 313 314 314 313 313 314 314 313 313 313 313 313 312 311 309 309 307 306 306 308 310 310 308 308 308 313 316 314 312 311 311 311 312 313 313 312 313 312 311 311 311 311 310 310 312 312 314 314 310 311 313 313 314 315 317 316 316 314 310 313 315 313 312 313 313 310 316 318 316 313 308 309 312 314 318 319 322 323 320 319 320 321 318
316 315 314 313 313 314 314 314 313 313 313 313 312 313 313 313 313 312 310 309 308 306 306 306 309 310 308 310 310 309 314 316 314 312 311 311 312 313 313 313 314 314 313 312 312 311 311 309 310 311 310 314 312 309 315 317 316 314 311 318 318 315 316 312 312 315 312 310 311 310 310 315 317 315 308 306 311 313 314 318 318 318 318 316 315 316 318 315
315 315 314 313 313 314 314 313 313 312 312 312 312 312 312 313 313 311 310 309 307 307 307 308 310 309 307 309 309 311 315 314 314 312 310 312 313 313 312 313 313 313 313 313 313 311 310 310 313 315 311 310 310 312 319 320 323 320 311 318 318 312 316 315 313 316 314 311 310 309 312 315 315 315 309 306 312 314 315 319 319 320 318 316 315 313 315 312
315 314 313 313 313 313 313 312 312 312 312 311 311 312 312 312 312 310 310 309 308 308 307 310 311 307 307 309 309 312 314 313 314 312 311 312 312 313 312 312 312 313 313 312 313 311 310 313 314 313 313 312 313 317 319 319 325 323 316 320 318 313 316 313 313 314 315 314 312 310 313 317 316 315 311 308 311 313 316 321 321 323 322 320 317 313 312 310
315 314 313 313 313 313 313 311 311 311 311 311 312 312 311 311 310 309 310 309 310 309 309 312 310 306 306 308 311 314 313 313 313 312 312 312 312 313 311 312 311 310 312 311 312 312 311 314 311 311 316 315 315 318 317 317 319 319 319 321 317 316 315 313 314 311 311 314 314 313 312 316 317 315 315 311 311 312 316 321 322 322 321 319 317 314 312 310
315 314 313 313 313 313 312 311 311 310 311 311 311 311 311 311 311 311 312 312 310 309 310 311 308 307 308 307 311 313 312 312 313 312 312 312 312 312 312 312 309 309 312 312 312 313 314 315 314 317 318 314 314 317 316 318 318 317 319 317 314 315 313 315 318 312 311 314 314 316 313 315 317 315 316 313 310 313 316 317 317 317 318 315 312 314 313 312
315 314 313 313 312 312 311 310 310 310 311 311 311 312 312 312 312 312 312 310 308 307 310 309 307 310 310 309 312 313 312 312 312 312 312 312 311 311 312 312 312 314 314 315 313 314 319 318 316 318 317 314 314 315 319 322 321 319 320 319 319 320 316 316 317 311 311 314 315 317 316 317 318 317 318 314 310 312 314 314 314 314 314 313 312 312 311 313
315 313 313 312 312 311 310 310 310 310 311 311 312 311 311 312 312 313 312 311 310 307 309 310 308 311 311 311 314 312 312 312 312 313 312 312 311 312 312 311 316 318 315 318 315 312 319 320 316 317 316 315 315 314 317 318 318 318 319 321 321 320 317 315 315 312 310 315 317 318 319 318 317 317 317 313 309 311 313 314 315 315 314 313 314 313 312 312
314 313 312 312 311 311 310 310 310 310 311 312 312 310 310 311 311 312 313 313 309 304 308 310 309 311 310 311 312 310 311 312 312 313 312 312 312 312 313 313 316 316 315 319 317 311 315 319 319 319 316 314 314 315 316 316 317 319 318 319 318 317 317 313 313 313 310 313 317 317 318 318 317 317 315 312 311 315 316 315 316 316 314 312 313 313 312 310
314 313 312 311 312 311 310 310 310 310 311 312 311 310 311 310 308 309 311 311 307 303 308 309 309 313 311 310 311 309 312 316 314 314 313 312 312 311 314 315 316 316 315 315 316 314 316 318 318 316 312 312 313 316 319 319 322 324 319 317 316 317 317 312 312 312 310 312 318 319 318 317 317 316 315 313 313 314 314 315 315 314 314 313 312 312 310 309
314 313 312 312 311 310 310 310 310 310 311 312 310 308 311 309 307 308 308 310 308 306 311 310 311 318 314 311 312 309 312 315 315 315 312 312 313 313 314 316 316 317 315 314 315 317 318 318 315 311 309 312 313 315 318 319 321 322 320 319 318 316 316 314 313 312 310 311 315 318 317 316 315 315 315 310 308 310 310 310 310 309 311 311 311 310 309 310
314 312 312 312 311 311 310 310 310 310 310 311 310 309 311 310 308 308 309 310 309 308 309 308 312 321 317 311 312 311 311 312 313 314 312 312 313 313 314 315 316 316 313 314 315 315 316 312 308 309 311 314 315 313 316 318 316 317 323 329 325 319 318 316 313 314 313 309 311 314 313 321 324 322 321 312 308 312 309 310 313 311 308 307 307 307 306 308
313 313 312 312 311 310 310 310 310 310 310 310 310 310 311 311 307 308 310 309 309 308 307 307 312 317 314 311 311 312 311 312 313 313 311 312 313 312 312 312 314 315 314 314 313 314 314 307 305 310 312 316 316 314 318 320 316 315 321 330 329 323 321 318 314 316 317 312 310 310 312 327 333 328 326 320 317 318 311 311 317 315 310 308 308 308 305 306
313 313 312 312 311 310 310 311 310 309 310 309 310 310 311 311 308 309 311 310 310 308 307 308 310 311 312 312 313 313 312 312 311 310 311 311 311 311 311 311 311 314 314 313 313 314 311 306 309 313 313 317 317 315 317 319 319 316 315 321 325 324 324 323 319 316 318 313 308 309 313 321 325 325 326 320 319 321 315 314 318 315 313 312 312 311 308 307
313 313 313 312 310 310 310 310 309 309 311 310 309 310 311 311 308 308 310 310 311 310 308 307 307 308 312 311 312 312 313 314 311 310 312 310 309 309 312 313 311 313 313 312 313 313 309 309 311 313 315 317 316 315 316 315 319 318 313 317 324 324 324 326 322 319 320 313 311 317 318 314 316 319 321 316 315 321 319 317 318 315 314 316 316 315 312 311
313 313 313 312 310 310 310 310 309 309 310 310 309 311 311 310 307 308 311 309 309 310 308 307 306 310 312 309 311 313 312 314 314 312 309 308 308 309 314 315 314 316 313 312 314 312 312 315 314 313 316 316 315 317 315 314 319 318 311 314 321 322 325 328 326 324 318 310 315 323 313 310 319 322 321 314 312 318 320 318 318 315 315 317 319 318 315 314
313 313 312 311 310 310 310 310 309 309 309 308 310 311 311 309 306 309 313 308 307 309 307 307 308 311 312 309 311 314 312 314 315 313 309 308 308 308 312 313 314 316 311 314 318 313 312 315 313 313 315 315 316 314 314 319 320 313 307 312 316 318 323 324 325 326 318 314 322 321 310 310 318 325 325 314 310 317 320 319 317 316 317 317 318 317 316 317
313 313 312 311 310 310 310 309 308 309 308 309 311 311 310 309 307 308 308 307 309 309 306 307 309 313 313 310 311 314 314 315 314 313 312 312 310 309 309 309 313 318 316 320 322 315 311 311 311 313 313 313 312 310 312 318 316 310 312 316 315 320 324 323 325 321 315 321 326 316 310 311 310 320 326 314 310 316 317 316 315 317 320 318 318 318 318 319
313 313 311 311 310 310 311 310 309 308 308 310 312 309 308 311 311 308 307 310 313 309 307 308 310 313 312 311 313 313 315 316 314 314 314 312 311 311 310 310 315 320 320 320 319 315 313 312 312 313 313 313 313 312 309 309 311 315 322 321 316 322 324 324 328 319 314 326 323 311 310 311 309 316 319 313 313 314 314 316 315 316 319 319 321 319 317 319
313 312 311 311 311 310 311 312 310 308 309 311 310 308 308 311 311 309 307 309 312 310 310 310 309 313 313 312 314 314 317 317 314 314 316 314 312 312 312 314 318 317 314 317 317 316 317 315 313 312 311 313 318 318 312 311 316 319 320 320 319 321 318 322 328 319 317 323 314 307 310 310 311 315 313 313 317 316 315 317 318 317 317 320 322 317 315 318
313 312 311 311 311 310 312 312 309 309 311 310 308 310 314 312 309 310 308 307 310 310 311 312 311 313 313 312 314 315 316 316 314 314 315 315 313 311 313 316 318 318 316 318 319 316 317 318 315 314 313 313 316 318 316 316 318 315 315 319 322 321 314 316 320 313 314 317 309 306 310 312 315 315 314 316 314 313 314 313 314 315 315 319 318 313 314 319
312 311 310 310 311 310 312 312 309 311 312 308 306 312 316 312 310 311 309 307 310 312 313 314 313 313 313 314 314 314 315 313 313 314 313 314 314 312 314 312 314 322 323 319 318 317 316 318 317 316 315 313 313 316 319 318 315 313 315 315 319 325 323 320 320 319 319 317 310 307 311 318 319 310 311 314 312 311 312 310 309 310 311 313 313 312 317 322
311 310 310 311 311 311 313 313 311 312 311 307 307 311 311 310 312 312 309 309 313 314 313 312 313 313 313 315 313 313 316 316 313 314 314 314 313 313 314 311 312 322 322 315 315 316 314 315 316 314 312 313 314 315 317 317 314 314 314 312 315 322 323 317 313 317 317 314 312 310 313 321 317 308 310 310 310 313 312 310 310 313 313 312 316 321 324 324
311 310 311 311 311 311 312 313 313 312 309 307 308 311 309 310 315 314 309 312 315 313 311 313 315 315 313 314 315 312 314 317 315 314 315 314 313 313 312 311 313 316 315 314 318 317 313 313 314 313 312 313 314 314 315 317 316 314 312 314 316 316 318 315 306 306 310 311 313 312 314 319 313 309 314 311 311 313 311 311 311 313 317 317 317 319 318 316
311 311 311 312 312 312 312 313 315 312 308 308 308 310 310 309 314 316 312 313 313 311 312 313 313 314 313 313 315 314 314 317 314 314 315 314 314 314 312 313 313 312 312 315 317 318 317 315 313 315 315 311 309 313 315 314 313 315 317 316 312 309 315 317 311 313 313 314 319 315 313 317 314 313 318 313 311 314 312 311 311 311 317 318 316 314 313 312
310 311 311 312 312 311 312 314 314 310 307 308 309 313 315 310 312 319 317 311 310 312 313 313 312 313 313 313 314 313 314 316 314 314 315 313 314 315 313 313 313 311 312 313 312 315 320 317 312 312 316 313 311 314 316 312 309 315 318 314 312 315 317 314 312 318 315 311 323 322 311 310 311 316 321 312 310 315 312 309 310 311 317 320 318 317 315 314
311 312 312 312 312 313 314 314 311 308 307 308 308 312 318 315 314 319 317 309 311 314 312 314 315 312 312 312 313 313 313 314 313 313 314 313 314 315 312 312 314 311 310 312 312 312 318 320 314 311 314 314 313 315 316 315 311 311 310 308 314 322 321 314 311 316 315 310 318 322 315 315 315 316 322 315 313 316 311 309 312 314 318 321 321 320 318 318
310 313 312 310 311 314 313 311 310 309 308 310 309 310 313 315 315 316 313 311 314 313 312 317 315 312 313 313 312 313 313 314 313 313 314 312 312 312 310 311 313 311 310 312 315 314 314 317 317 313 312 314 317 317 316 316 313 311 310 309 313 315 314 314 312 313 317 317 318 318 319 329 325 314 316 316 314 314 311 313 315 314 316 319 318 319 319 319
310 313 311 308 310 312 311 311 312 311 310 311 312 312 312 313 315 316 314 312 313 312 314 319 315 313 317 314 312 314 314 314 313 313 314 312 310 312 311 311 312 311 310 310 314 317 315 313 317 317 315 317 319 314 311 314 314 311 311 311 313 313 313 315 313 311 313 315 317 315 315 328 328 313 312 315 312 311 310 313 315 315 315 317 317 318 319 319
311 313 310 308 310 311 311 313 313 312 313 313 312 312 312 314 316 317 314 313 315 314 314 317 318 318 317 313 312 314 314 315 314 313 315 313 312 313 311 310 311 310 311 312 312 316 318 318 321 320 318 317 314 309 307 312 315 312 312 313 313 313 315 317 316 314 309 307 311 313 312 322 327 314 311 313 310 309 308 308 312 314 314 315 316 316 315 314
311 310 308 308 309 310 312 315 313 313 314 312 311 311 312 316 319 316 313 313 315 315 314 316 317 315 314 313 314 314 313 314 313 313 316 313 311 315 314 312 312 310 310 312 311 313 316 319 320 318 318 318 314 310 309 312 313 312 314 315 314 313 316 321 321 319 314 309 311 312 311 321 329 317 312 314 311 310 310 308 310 314 314 315 317 315 313 312
307 306 307 307 307 308 312 315 314 314 312 310 313 314 312 315 318 315 313 315 316 316 317 318 314 311 315 317 315 314 313 313 313 313 315 314 311 314 315 313 311 311 311 313 313 312 313 317 318 317 319 319 317 315 315 316 315 317 320 317 313 315 316 315 315 315 316 315 315 316 316 323 330 321 315 315 314 313 313 310 311 313 315 316 317 315 314 314
305 306 307 306 305 308 311 312 312 314 312 311 314 316 313 314 314 313 315 317 317 317 318 317 314 317 322 317 311 313 313 314 316 313 314 315 312 312 315 314 311 311 314 317 315 312 314 318 316 316 317 316 317 317 318 319 316 317 322 318 313 314 313 312 314 314 315 315 314 316 317 317 319 317 313 313 314 314 313 310 311 314 314 316 317 315 314 314
305 306 306 305 305 307 308 307 310 313 313 311 312 314 315 315 313 312 315 316 316 316 318 316 316 320 321 314 311 313 313 314 317 314 313 315 313 313 314 313 313 313 316 319 316 315 321 319 313 313 315 312 314 316 317 320 319 317 320 317 313 312 311 316 320 316 314 314 312 314 315 312 312 314 314 316 316 316 313 311 312 314 313 314 316 316 314 312
304 305 305 305 306 306 306 306 308 312 312 312 312 312 313 316 315 313 314 314 314 317 318 317 316 317 316 313 313 313 312 313 314 314 314 315 315 313 311 311 312 313 316 316 313 317 322 317 312 314 314 312 316 319 319 319 318 317 318 316 314 312 312 316 317 314 314 315 313 314 314 312 313 315 318 319 317 315 314 312 313 312 311 313 315 315 315 311
302 304 302 304 306 307 307 306 306 309 311 312 312 312 312 315 316 315 314 313 313 316 317 317 317 318 316 313 313 314 313 312 313 315 315 315 316 315 312 312 311 312 315 312 311 317 318 314 315 315 312 313 319 322 321 318 317 318 318 316 314 312 312 314 314 313 314 314 312 313 314 312 311 314 318 318 315 315 313 311 311 311 312 314 315 315 315 312
300 301 300 301 304 305 306 305 304 307 310 311 313 312 312 313 314 315 316 315 316 316 316 318 319 319 317 314 314 317 315 312 313 316 315 314 317 317 316 315 313 312 314 313 312 315 315 315 318 314 311 313 316 318 319 317 317 317 316 315 313 312 312 312 313 313 313 313 312 315 317 314 311 313 317 314 311 312 313 313 312 312 314 316 316 316 314 310
300 302 301 301 303 303 303 304 304 306 308 309 312 311 311 312 312 315 316 316 319 318 315 316 319 318 318 316 317 319 317 314 315 316 315 315 317 317 317 319 318 314 313 313 311 310 312 318 318 313 312 314 314 315 316 316 316 316 315 314 312 312 312 312 312 313 312 313 312 312 316 315 311 312 315 313 310 309 311 314 313 311 315 318 317 317 313 308
299 299 300 303 304 303 303 304 304 307 308 308 310 310 311 312 312 314 314 313 317 319 316 316 317 318 317 316 318 319 317 318 319 316 315 315 316 317 316 318 319 316 313 314 314 312 312 316 316 313 313 315 313 313 313 312 313 313 314 314 313 312 313 312 312 312 312 313 312 312 314 312 310 313 314 314 313 311 311 313 312 311 316 319 320 319 312 306
298 298 299 303 305 303 303 305 305 307 308 308 308 309 310 311 312 314 314 312 314 316 316 316 316 318 318 317 319 317 314 315 315 312 312 313 314 316 315 315 316 316 314 315 317 317 315 317 318 315 314 315 310 309 313 313 312 312 313 314 313 312 312 312 312 312 313 313 313 313 312 311 312 313 312 313 314 313 311 311 311 311 314 318 320 318 310 304
Wind_Speed
28 27 26 25 25 27 27 25 23 22 20 19 19 19 18 17 17 17 18 19 19 18 18 18 18 18 18 16 15 13 12 11 11 12 13 17 20 17 12 8 10 11 9 10 10 9 6 3 7 7 6 3 4 1 1 2 2 3 3 3 2 3 3 5 7 6 3 0 3 4 4 6 3 2 1 1 3 3 1 3 3 2 3 4 2 1 8 18
28 28 26 25 25 26 26 24 23 21 20 20 18 18 18 18 17 16 16 18 19 18 18 18 17 16 16 14 12 11 9 9 9 12 20 22 16 15 16 13 10 12 11 10 13 13 8 4 7 5 3 3 2 1 1 1 3 3 3 4 3 5 4 5 7 6 3 1 3 3 2 3 4 3 2 2 2 4 0 4 4 4 5 4 3 2 13 19
28 27 27 26 26 26 26 24 23 22 21 20 18 19 19 18 17 16 15 16 18 18 17 17 16 15 13 12 10 9 7 5 6 13 23 24 18 15 14 14 13 13 12 10 13 14 11 10 10 6 4 3 1 1 2 2 1 2 3 3 4 6 3 4 5 5 4 2 4 4 2 1 2 3 1 3 1 1 3 5 2 4 7 5 2 6 16 18
29 27 27 27 27 26 25 25 23 22 21 20 19 18 18 18 17 16 15 16 18 17 17 16 15 14 12 11 10 9 6 1 4 10 18 20 21 18 12 13 13 13 13 11 12 12 11 11 9 4 5 3 3 2 2 1 1 2 4 4 5 3 2 3 5 5 4 3 4 5 4 1 2 2 2 5 3 3 5 6 7 9 8 7 4 9 17 18
29 28 28 27 26 25 25 25 22 21 21 20 19 18 19 19 17 15 14 15 17 17 16 16 15 14 13 12 11 11 7 2 5 8 14 17 20 19 13 13 14 13 12 11 10 10 10 9 6 4 5 2 2 2 1 2 1 3 2 4 5 3 3 2 3 3 3 4 4 6 5 3 2 1 2 7 5 5 5 5 7 8 6 6 7 12 16 16
30 29 29 28 25 23 24 25 23 21 20 20 19 18 19 19 16 13 13 14 16 17 16 16 16 15 14 13 13 12 7 1 3 3 12 17 20 20 14 13 14 14 12 11 11 11 9 5 4 3 3 3 2 3 2 3 1 3 1 2 4 3 2 0 1 2 4 6 6 5 4 3 4 1 1 6 8 6 4 3 4 6 4 7 10 14 15 15
30 29 29 29 26 23 23 25 24 22 20 19 19 18 19 17 15 13 12 13 15 17 16 16 16 16 15 14 12 7 3 4 4 2 8 15 20 19 14 14 14 14 13 13 12 9 6 5 4 4 5 3 3 3 3 1 4 4 3 2 3 3 2 1 0 3 5 6 5 3 2 3 5 3 1 4 10 6 3 3 2 2 5 9 11 14 17 18
31 30 29 28 26 24 23 24 23 21 20 19 18 18 16 14 14 13 11 12 14 17 16 16 17 16 16 14 9 3 2 5 4 1 7 13 17 17 14 14 14 14 14 16 14 9 7 7 5 4 4 2 4 3 3 3 5 3 4 4 4 2 1 1 2 4 4 3 1 3 3 2 4 3 1 7 10 5 5 3 1 5 6 7 9 13 15 18
32 31 29 27 27 26 23 23 22 21 19 17 17 16 15 14 13 11 11 12 14 17 17 17 17 17 17 12 7 3 5 8 5 2 7 12 14 15 14 13 14 15 14 14 13 11 7 6 5 5 4 3 4 5 3 3 0 2 4 4 6 2 3 2 4 5 3 1 2 4 2 3 2 1 3 8 6 5 4 1 2 6 6 6 7 11 14 16
32 30 29 27 27 26 24 23 22 20 19 18 17 16 15 14 12 10 10 12 14 16 17 18 18 19 17 9 6 3 5 6 7 5 8 12 11 14 14 12 15 16 14 11 11 11 7 6 7 5 5 3 3 3 2 3 2 3 6 6 6 2 2 2 4 4 2 2 2 4 2 3 1 0 4 6 3 4 1 2 0 3 5 6 6 9 12 15
32 30 29 28 28 27 25 23 22 20 19 19 17 16 15 12 11 10 10 12 14 16 17 19 18 20 15 7 5 5 4 4 7 8 10 11 10 12 12 11 15 17 15 9 10 13 6 8 11 5 2 2 4 3 1 2 4 5 8 6 6 3 3 4 5 3 2 2 2 5 3 3 2 1 6 5 4 2 3 2 2 3 4 4 4 6 8 11
32 30 29 28 28 28 26 23 22 21 18 18 17 16 14 11 11 10 10 13 14 16 18 19 19 19 12 4 4 5 3 5 8 9 11 11 10 11 8 10 14 14 15 9 10 14 6 10 13 6 0 4 5 2 2 3 4 4 6 6 5 6 4 4 3 2 2 2 1 3 2 4 2 5 8 4 5 4 2 2 4 4 4 3 4 4 5 9
32 30 29 28 28 27 26 24 22 21 19 18 17 15 13 12 10 10 12 13 14 16 17 18 19 18 9 2 5 7 5 6 8 10 11 10 10 10 8 11 12 10 12 9 10 12 8 12 12 6 2 5 3 2 4 4 3 3 4 5 2 5 4 3 2 3 1 1 3 1 2 6 6 9 8 4 5 5 3 4 4 3 4 4 4 4 5 8
32 30 29 28 28 27 27 24 21 21 19 18 17 15 13 11 10 10 13 14 15 16 16 18 18 13 5 2 4 7 7 6 8 10 11 11 10 10 8 10 10 8 8 7 9 9 8 13 11 7 3 4 3 2 5 5 3 3 3 2 2 2 3 5 3 1 3 0 4 4 2 6 8 9 6 4 3 1 5 6 5 4 4 4 4 4 5 7
32 30 28 27 28 27 27 25 21 20 18 17 16 14 13 11 10 10 13 14 14 16 16 17 17 9 2 2 3 7 9 6 8 11 11 12 12 9 7 8 9 8 8 8 10 10 11 13 10 6 1 2 4 5 4 4 4 3 2 0 2 3 4 6 2 1 3 0 5 6 3 6 8 9 6 4 3 3 4 6 6 6 5 4 4 5 6 7
32 30 28 28 28 26 26 24 20 19 17 16 15 14 12 10 10 11 13 14 14 16 16 14 14 8 2 2 2 5 7 5 8 11 11 13 11 8 10 11 9 9 10 11 14 12 9 9 5 2 3 3 4 6 4 4 4 4 2 3 1 3 2 4 1 2 1 1 3 3 3 3 3 6 5 3 3 4 2 6 6 6 6 5 4 5 5 6
31 29 28 28 28 26 26 24 20 19 18 17 15 14 13 11 11 12 13 14 15 16 14 13 12 5 1 2 4 4 5 6 10 12 12 12 10 11 13 9 6 10 12 12 11 8 6 5 2 0 3 3 2 5 5 2 1 2 2 3 2 3 3 2 2 3 3 3 1 1 2 6 5 6 7 5 1 2 5 6 6 6 6 5 5 5 5 6
31 29 28 28 27 26 25 23 21 19 18 17 16 14 14 14 14 15 16 17 16 12 8 8 8 3 2 4 4 3 4 9 12 12 12 11 11 14 11 6 6 9 9 6 4 3 4 4 2 2 3 2 2 4 5 4 5 5 3 4 2 2 3 3 3 2 3 3 2 0 3 9 10 10 9 6 3 3 6 6 6 7 7 7 6 6 6 6
31 29 28 27 26 26 24 22 20 19 19 18 17 18 17 15 13 12 13 12 10 6 3 5 6 3 4 4 3 5 9 13 13 10 11 11 12 11 7 7 7 7 5 3 1 1 2 3 3 4 3 3 6 5 7 7 8 9 6 5 5 3 3 5 4 4 0 3 3 4 5 8 10 10 11 7 2 3 7 5 6 7 7 7 6 6 7 7
31 29 28 26 26 25 22 21 20 21 21 21 23 20 13 10 7 4 3 2 2 2 2 5 7 3 1 1 4 11 12 10 6 6 11 12 12 10 6 4 5 6 3 4 2 1 3 4 3 5 7 8 7 6 6 5 7 9 6 5 4 4 2 3 3 5 1 3 3 3 4 8 10 11 12 8 2 4 8 7 8 8 7 8 7 7 8 8
30 29 27 26 26 23 21 21 20 21 22 25 24 12 5 7 5 5 4 2 3 1 3 2 4 4 2 2 6 9 7 5 3 4 11 11 11 10 1 2 5 3 1 2 3 2 4 5 7 6 7 7 7 7 8 7 7 6 6 5 2 3 2 2 2 4 3 1 2 3 3 9 10 11 11 8 5 7 9 8 9 9 8 7 7 9 9 7
30 28 27 27 25 21 20 20 20 22 23 23 15 3 3 5 7 12 10 2 3 0 3 1 4 4 2 3 6 3 3 5 3 1 6 8 6 6 2 3 6 4 1 2 3 2 2 5 7 6 6 7 6 5 8 8 7 6 4 6 2 2 2 2 2 4 4 1 2 3 3 9 10 10 11 9 8 8 7 7 8 7 8 8 8 9 7 6
30 28 27 26 23 20 19 20 20 21 23 19 10 4 4 6 13 17 10 5 1 0 2 1 3 4 3 2 5 2 3 5 4 2 4 6 4 4 5 5 5 5 3 4 5 6 5 5 5 6 8 10 6 4 9 8 5 4 4 5 2 2 2 2 2 2 3 2 1 1 2 7 7 7 9 8 6 7 6 6 7 6 8 10 9 7 6 8
30 28 27 25 21 19 19 20 20 20 21 17 12 8 7 10 17 15 6 4 2 1 0 1 2 4 3 3 5 4 3 2 4 5 5 6 4 3 5 5 5 6 4 6 7 7 4 4 2 7 7 9 7 4 7 7 3 1 3 5 4 4 4 3 2 1 2 2 2 1 3 6 4 4 7 4 3 5 4 5 7 6 7 8 8 7 7 8
31 28 27 24 20 19 22 21 17 18 18 13 13 10 8 12 14 10 5 3 1 1 1 1 0 3 4 4 4 4 3 1 1 2 4 6 6 4 3 2 3 5 5 6 7 4 3 3 3 8 5 6 8 4 5 7 4 1 3 6 6 8 7 3 3 4 3 2 3 3 2 5 5 4 7 4 6 7 4 5 7 6 5 5 6 7 6 6
33 29 27 24 20 23 22 14 14 18 14 10 15 12 9 12 12 7 6 4 1 1 2 3 1 5 7 3 2 4 4 1 1 1 3 5 4 4 4 1 2 3 5 6 4 2 1 2 2 6 6 6 7 5 6 6 6 2 4 5 7 8 9 7 5 4 2 1 1 3 2 4 6 5 7 4 7 10 7 5 6 6 5 4 5 5 5 6
33 29 27 24 23 25 16 8 16 19 8 9 16 14 10 12 10 5 5 5 3 2 4 1 1 7 9 2 2 6 4 3 2 2 2 3 1 3 4 4 2 2 3 4 2 1 3 3 3 5 6 6 6 5 6 7 8 3 3 6 9 9 8 8 6 4 2 2 2 3 3 2 5 6 6 5 6 10 8 7 7 6 6 6 5 5 5 5
34 30 29 24 24 24 13 11 21 16 7 11 17 14 13 14 8 4 5 3 2 2 4 1 0 6 5 1 3 4 2 1 4 2 2 3 1 3 3 5 5 4 1 4 4 2 3 5 5 6 5 4 4 4 5 9 6 3 3 6 7 8 8 6 6 4 1 1 3 4 3 1 5 6 5 5 4 8 8 6 7 6 6 6 5 6 5 4
34 32 30 25 24 20 10 11 20 19 12 14 17 16 16 13 6 4 4 2 1 2 1 2 3 3 2 3 3 3 2 2 2 2 2 3 1 4 4 5 7 8 2 3 6 2 1 5 7 6 5 5 2 2 1 5 4 3 5 7 7 7 6 5 5 4 3 2 4 4 2 0 5 6 4 3 2 7 6 5 5 5 5 5 5 6 6 5
34 33 30 27 25 20 10 8 18 23 16 13 16 18 15 8 4 5 2 3 3 1 1 2 3 3 6 7 2 3 3 2 1 1 2 1 3 6 3 2 6 7 3 6 4 1 2 1 1 2 3 5 4 4 3 3 6 8 6 8 8 6 5 4 3 4 3 2 5 5 2 0 3 6 4 2 3 5 4 2 3 4 5 5 5 5 5 5
34 33 31 28 25 22 12 5 16 22 14 13 18 16 10 4 3 5 5 3 3 1 0 1 1 4 11 13 5 1 3 2 0 3 3 1 3 4 2 2 4 4 3 4 3 3 3 2 0 0 1 4 6 6 5 4 5 6 4 6 5 4 4 4 4 3 2 4 6 4 2 1 3 5 3 3 6 5 5 4 3 4 6 5 5 5 5 5
34 32 30 25 24 24 12 4 15 20 15 18 18 9 5 4 1 5 3 2 3 3 4 4 4 6 12 12 8 5 4 2 1 5 5 3 3 4 3 4 4 3 1 3 1 2 2 1 1 1 0 4 6 6 5 5 4 5 5 7 5 2 2 1 3 0 3 5 3 2 1 2 5 7 6 7 8 7 7 6 5 4 6 6 6 5 5 5
33 32 28 23 25 26 13 8 17 20 18 20 12 3 5 4 7 6 3 2 2 2 3 4 2 5 10 9 6 5 4 2 4 4 3 3 4 4 1 3 6 5 3 5 4 2 0 3 1 2 1 2 5 6 3 1 0 4 6 6 5 3 2 2 3 2 3 4 2 3 2 2 4 6 8 11 10 7 7 6 5 5 5 7 7 5 5 6
32 31 29 25 26 26 15 11 18 20 20 15 6 4 6 6 7 6 6 4 0 2 2 4 5 6 8 5 4 6 4 1 5 4 2 4 5 5 3 3 3 5 4 4 3 5 4 3 3 3 2 2 4 4 5 6 4 2 3 5 5 5 5 4 4 3 3 2 2 3 2 3 3 3 6 8 8 6 5 5 4 5 6 7 7 5 5 5
29 30 29 25 25 25 16 11 17 21 18 9 4 6 9 8 5 5 7 5 1 2 3 3 7 8 4 2 1 5 3 2 4 4 3 5 6 8 7 6 6 4 6 5 3 2 3 4 3 2 2 3 3 2 3 7 3 1 1 5 3 4 5 3 3 5 3 0 1 2 3 4 3 5 6 3 5 6 5 4 3 4 4 2 4 4 3 3
29 28 25 23 23 25 19 12 15 19 13 6 6 8 8 6 4 4 6 5 4 6 7 4 4 5 3 1 1 5 0 3 5 4 3 4 4 7 8 6 7 7 6 6 3 1 2 2 4 3 3 2 2 2 1 2 3 2 2 3 4 3 8 6 2 1 3 1 2 1 3 5 3 6 6 2 3 6 5 5 3 5 2 3 2 2 1 3
27 23 18 19 22 25 22 14 16 17 7 3 8 9 4 2 3 4 5 5 6 8 10 5 1 4 6 3 4 7 3 3 4 3 4 4 3 6 7 4 5 9 7 4 2 3 5 1 3 2 2 2 1 2 4 3 3 5 3 5 4 3 5 4 2 3 3 2 4 1 4 5 1 3 5 2 4 7 6 4 4 4 1 5 3 2 2 4
23 18 11 15 23 23 21 17 17 13 4 1 10 9 2 2 3 4 4 6 7 6 6 6 3 3 7 6 6 8 6 5 5 4 4 4 4 7 10 6 4 9 7 3 2 2 4 3 3 2 2 1 3 2 3 4 4 3 4 4 4 3 2 2 3 2 1 2 4 3 3 3 4 4 4 2 8 9 5 3 4 5 4 5 5 4 4 4
18 11 5 12 22 21 20 20 15 9 2 5 11 9 3 3 1 2 3 5 7 5 5 6 2 2 5 6 6 7 7 6 7 6 4 4 4 5 10 7 3 7 8 5 4 2 4 4 1 1 1 1 3 1 5 2 3 3 2 3 2 2 4 2 3 4 3 3 3 4 3 3 6 6 4 7 10 8 6 4 6 7 6 6 6 6 6 5
9 4 2 7 17 20 22 18 9 4 4 6 8 5 2 3 2 1 2 3 4 3 4 5 3 4 4 4 4 6 5 5 8 7 4 5 4 4 7 7 5 7 5 4 3 2 3 3 3 1 3 1 2 3 6 7 4 2 3 4 2 1 2 2 1 2 3 4 3 2 3 5 6 5 7 9 7 6 7 7 7 6 6 6 6 7 6 5
2 2 2 3 13 22 22 12 4 5 5 2 2 3 1 2 4 2 0 1 2 1 3 5 4 5 5 4 4 5 4 3 6 5 3 5 6 4 6 7 9 9 6 4 3 3 2 3 5 2 0 3 3 3 2 4 5 5 5 7 7 4 5 3 2 1 2 3 4 4 3 8 6 4 6 7 5 5 6 8 7 6 7 7 6 6 6 5
1 3 2 3 13 21 15 6 3 3 2 2 2 3 2 2 4 4 1 2 2 1 2 3 3 3 5 4 4 6 7 5 5 5 4 6 8 6 4 4 8 12 9 5 3 3 3 4 5 2 3 4 4 3 1 3 1 2 2 4 5 4 5 6 5 4 2 2 2 3 1 7 6 3 5 6 5 4 4 5 7 6 7 7 6 5 3 1
1 2 4 5 11 14 9 5 4 2 2 3 1 2 2 2 3 3 3 2 2 2 2 1 2 2 3 3 4 7 8 5 6 8 5 5 6 4 3 6 10 10 8 5 3 2 2 4 4 1 2 3 4 3 2 1 1 1 3 3 5 3 3 5 5 4 4 4 3 3 2 7 6 3 4 5 5 4 4 5 7 7 6 6 7 5 3 1
1 2 4 5 7 8 5 6 9 7 4 1 2 3 2 1 3 4 5 4 2 3 3 2 2 2 2 4 5 7 9 5 6 8 5 3 4 1 2 9 12 10 7 4 6 6 4 3 5 3 2 3 4 3 3 3 1 3 4 4 5 4 6 5 2 4 3 5 7 5 4 7 6 4 2 3 4 3 4 5 6 7 7 6 6 5 3 0
1 2 2 3 3 2 2 3 5 7 5 4 5 4 2 2 1 2 5 4 2 3 4 2 2 3 3 3 4 5 8 5 3 6 3 2 2 3 2 5 9 8 4 1 4 7 5 4 6 7 6 6 5 5 4 3 3 2 3 6 7 7 9 6 3 4 3 5 7 7 6 5 5 5 5 4 2 2 3 3 3 4 6 7 6 4 3 1
1 1 1 2 4 2 1 1 1 4 5 6 5 4 4 3 0 0 3 3 2 3 3 1 2 3 3 4 5 5 8 3 3 3 5 4 2 2 2 1 3 3 1 2 6 7 3 2 5 8 11 11 11 8 4 6 6 5 5 8 9 8 8 6 5 4 6 3 3 7 6 3 5 6 5 5 5 5 5 5 6 7 7 6 6 4 1 2
0 1 1 1 1 1 1 2 1 2 4 7 5 4 6 5 2 1 1 1 3 3 3 1 2 4 5 7 6 5 8 4 2 3 4 3 2 2 2 1 2 1 3 2 6 5 4 3 7 9 12 11 7 6 4 7 9 10 9 9 10 10 9 8 7 9 6 6 6 11 8 8 9 8 8 8 6 6 7 9 10 9 7 6 4 3 3 2
0 1 1 1 1 1 0 1 2 2 2 5 4 4 7 6 5 5 1 1 0 1 2 1 3 5 8 9 7 5 6 5 3 3 2 2 3 1 2 2 1 1 2 2 2 3 5 6 7 8 11 9 3 4 6 8 8 9 11 12 13 12 13 13 15 13 9 8 15 11 10 13 12 8 10 10 9 10 10 9 7 5 5 5 5 5 6 4
1 1 2 3 2 1 2 4 6 4 3 5 3 4 9 11 8 5 2 3 0 2 2 3 5 5 6 7 6 6 7 7 5 5 3 3 3 3 2 1 1 1 2 4 2 1 4 5 5 7 10 10 4 4 5 7 6 5 9 13 14 15 17 17 18 16 12 14 17 7 9 14 12 9 11 10 9 8 4 4 4 6 6 6 6 6 6 6
1 1 0 2 2 2 2 4 7 5 2 3 3 3 7 12 11 4 1 4 4 3 2 4 5 5 5 5 5 4 7 7 7 8 8 6 4 3 4 4 3 1 1 4 3 2 3 3 3 6 5 7 4 4 4 5 5 5 7 9 12 14 16 17 18 16 12 14 14 4 4 12 7 8 9 6 5 4 3 4 7 7 6 7 7 7 7 7
2 1 1 2 1 1 2 2 3 3 2 3 3 3 4 9 10 6 1 2 6 6 6 7 7 4 3 4 4 3 5 5 6 8 9 8 6 5 3 4 7 7 5 5 3 3 4 2 2 5 5 6 3 5 5 5 5 2 3 8 13 14 14 16 15 11 10 13 12 5 6 12 4 8 8 5 5 6 7 8 8 6 6 8 8 8 8 8
3 1 1 3 1 2 2 2 2 2 2 2 3 3 3 4 6 7 4 1 2 4 6 9 9 5 4 5 4 4 5 7 6 5 6 5 4 4 3 2 6 8 7 6 3 2 5 5 2 4 7 4 3 2 6 7 4 3 6 12 17 17 15 13 8 6 9 11 10 9 12 12 5 8 9 7 7 8 9 9 7 7 8 7 7 8 8 8
Wind_Direction
187 186 185 185 188 191 189 186 183 183 186 186 188 188 185 184 183 184 189 190 190 192 196 199 201 203 204 207 209 211 217 221 231 226 219 234 236 233 239 232 212 206 201 187 178 172 159 171 187 163 139 96 21 347 56 25 68 67 82 97 126 172 207 180 178 194 166 220 195 213 211 155 173 231 163 118 37 18 313 301 303 297 256 231 267 278 158 160
186 185 185 186 187 188 185 181 181 183 185 186 187 186 185 184 183 184 186 188 190 191 191 193 197 198 201 202 202 206 212 225 241 243 235 235 239 235 233 233 213 198 192 182 185 176 158 192 188 142 73 59 4 4 88 357 69 85 110 113 189 199 207 191 171 182 174 65 157 184 207 162 175 168 136 195 313 6 233 278 329 320 272 234 281 193 164 164
184 184 185 185 185 184 182 179 180 184 185 186 186 184 184 184 183 184 183 186 188 189 187 189 194 195 197 195 195 198 197 229 259 254 245 236 235 236 228 225 214 200 197 194 193 189 186 190 172 133 54 68 353 32 96 14 63 141 116 110 226 209 206 216 178 179 192 153 135 157 160 158 193 166 163 182 193 356 213 236 249 263 252 220 226 162 165 169
183 184 184 184 183 180 179 179 179 182 183 184 183 181 184 184 182 182 182 185 187 186 184 186 190 190 191 188 187 181 157 328 274 247 248 239 230 230 222 213 206 199 203 201 193 202 204 175 151 108 69 67 332 10 106 317 194 146 119 155 216 194 152 209 199 195 191 153 143 141 122 167 219 176 161 153 150 275 244 228 209 221 227 197 178 169 170 172
182 182 182 181 179 175 177 179 179 178 179 180 180 182 185 186 183 179 180 184 185 184 183 185 186 184 185 181 179 171 134 38 274 232 230 228 221 220 214 203 198 194 197 197 188 187 185 161 125 72 72 98 340 45 110 287 144 103 109 162 173 159 127 187 202 189 158 110 121 131 141 173 155 140 158 157 179 235 236 225 216 225 217 177 169 172 173 176
182 182 178 176 175 173 176 180 182 179 177 178 178 184 188 190 188 177 176 180 181 182 182 183 181 178 180 178 176 172 153 182 302 249 213 205 203 206 202 195 191 189 191 187 173 161 160 139 112 129 81 90 146 142 174 291 14 112 189 153 161 176 109 104 219 171 142 116 139 160 171 137 120 218 194 178 212 223 214 212 230 251 214 165 158 165 173 181
182 180 175 173 174 173 176 178 181 178 175 176 177 186 189 188 184 174 172 177 180 180 180 181 178 177 175 169 167 162 172 247 313 323 210 190 186 192 190 189 185 184 185 173 161 151 146 121 136 160 92 93 163 156 164 340 24 96 151 165 161 160 90 316 228 145 145 138 176 193 128 123 158 197 82 222 238 235 242 274 266 242 159 156 156 171 183 187
178 176 173 171 172 174 176 175 176 174 172 174 178 186 184 176 174 172 170 174 177 176 178 179 176 175 169 160 150 133 224 250 302 327 196 179 174 178 179 180 176 179 180 175 171 158 146 140 162 160 96 169 164 132 153 83 32 83 149 163 137 126 30 2 85 101 132 143 165 118 112 188 197 169 124 246 251 263 280 315 87 124 134 165 170 181 189 191
174 173 172 171 172 174 174 172 173 172 171 174 180 180 172 171 173 169 170 171 174 175 175 175 175 171 166 156 128 138 220 239 266 217 177 174 168 170 174 174 173 178 176 180 181 165 160 165 186 181 147 187 136 128 172 127 228 171 135 135 121 99 338 66 90 63 84 97 69 117 82 315 217 160 269 252 257 286 289 11 107 130 149 190 186 189 191 195
174 173 172 171 172 174 174 173 172 171 172 176 176 171 169 173 171 165 170 173 174 174 173 173 174 167 163 151 122 170 230 238 235 205 171 174 169 168 172 175 177 180 176 176 184 173 175 182 179 163 137 132 114 118 181 161 183 139 111 100 93 87 344 74 105 38 37 83 59 153 183 307 270 333 267 253 292 311 234 116 90 159 183 201 196 201 200 203
175 173 172 172 172 174 177 175 172 170 172 173 168 167 169 169 166 165 170 174 174 171 172 172 171 167 162 144 138 191 233 216 204 184 171 173 173 174 175 181 181 183 179 170 191 190 189 179 158 123 129 155 114 73 300 156 109 120 124 93 28 25 48 46 87 34 6 108 74 139 155 310 360 263 235 242 325 342 151 172 288 218 232 227 212 215 210 219
175 173 173 172 172 174 176 174 172 172 171 168 165 166 166 162 163 167 168 170 172 170 170 171 170 166 153 117 166 206 214 193 185 172 170 168 171 179 175 182 182 185 185 177 196 198 195 177 148 99 270 151 123 115 161 109 89 123 120 98 358 8 41 15 50 349 346 121 41 118 129 294 231 235 248 267 326 359 106 244 275 243 260 271 249 246 226 230
175 174 174 173 172 172 172 170 171 171 168 166 165 164 163 161 161 166 167 168 170 168 168 170 170 164 147 113 209 213 205 179 176 170 169 165 167 176 171 176 178 184 191 189 190 190 192 181 150 105 105 111 126 183 122 69 71 129 75 96 60 23 10 339 2 329 108 118 332 116 232 276 249 257 270 305 327 346 336 277 274 267 267 270 264 258 245 238
176 174 173 174 172 171 171 170 168 169 167 168 166 163 162 159 161 165 164 166 167 164 165 168 166 160 155 209 203 203 200 177 174 172 167 166 160 158 161 171 178 180 184 184 173 168 174 166 130 98 96 92 130 126 65 26 27 104 81 70 84 126 256 307 344 349 142 127 2 102 207 269 265 272 281 319 330 258 276 282 286 289 276 262 259 253 253 242
175 172 172 173 171 171 173 170 168 169 167 166 163 162 162 158 162 163 160 161 160 158 159 162 163 152 138 252 213 185 188 178 175 175 171 169 157 145 152 160 162 157 152 152 144 137 145 140 108 88 82 28 101 95 53 23 18 42 116 320 9 155 245 313 346 76 144 248 28 98 210 273 269 272 278 322 25 141 237 281 295 291 281 265 252 245 249 252
174 171 170 171 170 171 172 169 167 168 166 164 162 161 160 154 154 155 157 154 148 151 150 155 169 159 119 198 171 163 181 186 176 176 174 172 167 151 143 138 127 125 126 122 123 121 114 105 81 96 112 70 100 104 77 40 7 350 94 167 214 153 235 313 2 346 86 144 16 89 212 269 271 272 283 319 45 73 305 286 289 284 281 271 251 244 245 257
173 170 169 169 170 171 170 168 166 166 165 162 159 157 152 143 143 144 143 139 136 143 147 159 171 159 95 146 152 171 182 173 168 170 171 174 177 158 140 121 100 111 110 109 117 105 62 57 55 181 68 73 121 109 95 52 248 279 42 119 193 163 178 278 261 318 32 126 214 50 225 247 261 276 288 290 259 350 306 282 282 280 277 271 261 260 249 249
172 170 169 169 171 170 170 168 166 164 161 158 153 146 138 128 130 132 130 126 121 122 135 161 155 142 229 189 167 177 150 148 155 160 163 165 167 159 142 116 111 109 93 81 93 71 33 33 68 108 47 59 153 125 142 199 187 175 156 130 163 183 190 247 233 258 27 101 190 147 258 259 273 282 284 279 208 236 272 271 280 279 274 272 267 262 256 252
172 171 169 169 170 170 170 168 165 162 157 152 142 130 120 111 111 121 131 128 117 116 165 176 154 157 207 198 154 114 121 135 142 147 149 150 156 149 119 110 111 97 96 87 65 79 82 60 72 132 148 175 187 169 172 193 166 157 162 138 148 171 226 244 246 268 80 117 212 223 238 267 278 282 284 281 187 211 267 277 275 270 269 268 263 257 256 252
172 170 168 167 168 169 169 166 163 162 157 151 142 130 118 116 104 109 144 157 160 175 239 184 156 129 105 148 126 119 118 120 121 142 149 152 149 129 82 73 73 57 104 146 147 126 100 126 175 185 186 187 180 155 140 147 132 132 125 106 138 165 229 251 265 302 15 139 242 237 257 275 272 273 275 278 294 271 266 267 265 261 260 259 256 257 251 246
172 168 166 165 166 168 166 163 162 163 161 157 153 141 146 158 133 152 172 283 235 205 319 248 130 100 83 114 146 137 116 83 57 122 152 159 151 141 87 29 103 80 305 168 142 83 91 158 206 209 190 171 149 131 116 100 88 100 125 124 131 185 213 261 265 315 350 164 267 10 324 274 265 269 270 273 285 266 249 244 252 254 256 259 256 257 254 257
171 167 165 164 165 166 162 161 163 165 166 167 169 185 207 168 126 148 149 115 238 192 14 329 99 81 43 118 168 181 60 87 85 84 164 159 152 166 160 78 131 154 270 144 120 104 136 207 220 203 159 115 94 103 101 90 90 88 107 126 145 214 214 289 297 329 4 124 271 358 332 275 266 265 265 260 253 254 248 238 246 254 261 264 257 258 268 277
170 167 165 163 164 163 160 160 163 170 174 176 190 215 175 146 132 141 133 88 163 321 50 108 132 114 51 113 185 184 69 124 155 222 199 152 143 172 136 111 136 138 159 179 155 151 185 246 229 175 143 115 88 78 99 90 83 93 107 128 167 227 170 220 250 316 9 63 274 275 285 282 280 282 275 261 251 267 276 262 256 248 247 259 267 274 281 275
169 166 165 163 161 159 159 158 163 176 182 188 209 201 143 138 145 140 107 77 130 277 90 162 150 143 122 139 175 148 96 129 157 179 191 152 139 151 142 139 133 134 182 185 155 156 196 280 187 142 135 125 115 106 122 114 80 87 145 142 161 189 176 191 190 121 3 21 43 43 312 293 304 317 287 289 326 294 298 309 289 263 248 263 283 285 268 262
168 166 165 161 157 156 155 154 164 180 182 196 213 195 136 141 152 135 90 83 116 328 279 192 150 170 151 124 148 152 124 96 135 187 184 152 141 134 141 135 133 168 187 149 132 160 224 297 137 135 123 120 126 149 173 147 124 248 212 176 169 168 158 138 111 89 44 2 6 20 329 286 315 312 268 299 340 304 314 335 300 290 294 288 288 286 276 269
168 166 164 160 156 155 151 152 173 174 174 208 203 177 148 151 151 133 91 62 316 262 174 166 144 171 165 126 135 140 123 161 313 20 131 145 143 119 133 113 53 174 173 135 133 168 197 358 78 134 137 127 133 173 204 156 127 195 229 167 142 132 129 133 129 104 103 217 336 41 155 256 317 307 269 310 327 300 313 327 302 307 322 318 297 290 290 281
168 166 163 159 158 157 152 151 167 163 166 213 190 165 157 156 147 131 82 45 294 200 137 183 331 161 167 182 158 142 159 205 108 62 79 126 124 61 131 172 107 156 169 125 154 213 126 91 68 106 118 124 143 189 207 153 131 206 230 132 125 125 135 144 124 106 172 221 327 19 108 223 298 278 275 329 325 302 314 318 316 332 335 330 321 310 306 286
168 167 164 160 161 165 165 152 159 167 180 176 168 159 155 153 146 110 87 90 253 142 130 237 98 141 150 57 82 117 181 176 120 175 339 67 110 45 112 182 152 142 158 135 183 248 114 154 172 142 126 155 180 224 199 144 124 242 212 126 125 126 128 124 102 94 38 15 297 323 43 194 266 275 302 356 322 290 302 304 311 328 328 332 337 335 333 318
169 167 164 160 163 172 178 162 167 179 178 158 159 161 152 151 146 85 83 157 188 78 107 133 120 130 124 96 67 54 63 45 106 222 343 66 69 50 121 183 137 119 58 104 165 213 114 184 188 151 148 184 184 329 225 135 122 184 148 102 84 82 84 83 91 100 54 38 236 271 11 207 263 283 305 10 291 262 272 282 286 292 296 312 333 345 349 353
170 167 163 160 164 171 166 171 186 183 174 163 162 157 146 145 135 109 149 208 148 81 17 123 155 162 140 133 71 3 85 62 3 42 18 72 30 31 107 148 104 110 43 41 94 243 305 240 195 124 151 171 135 63 33 83 123 139 121 84 70 44 41 54 56 83 71 309 250 260 319 268 270 281 259 213 230 221 211 240 281 300 311 315 325 346 356 359
169 165 162 162 169 173 159 180 196 183 177 171 160 152 139 98 75 143 193 209 123 98 73 145 190 150 154 158 159 137 94 58 91 126 132 164 46 49 116 112 74 80 47 46 45 329 358 40 313 91 123 126 104 69 38 43 97 107 97 98 89 13 15 29 1 46 113 250 258 275 304 158 217 261 255 250 263 234 188 181 209 289 315 318 317 335 346 346
170 165 163 168 175 176 173 199 183 173 176 169 156 150 124 91 172 188 189 156 148 192 178 178 204 174 169 165 151 150 124 90 179 152 149 151 147 158 159 172 153 98 154 185 157 352 31 72 264 2 233 151 117 81 37 356 21 77 109 115 105 22 21 1 310 333 208 241 262 288 290 202 230 250 257 263 266 243 216 208 210 255 301 311 314 333 343 333
169 165 165 174 178 178 180 179 171 169 171 165 152 94 87 136 205 193 170 183 189 195 142 131 153 153 158 156 152 153 115 128 184 162 147 135 157 200 251 181 154 121 178 179 133 124 280 302 290 111 247 207 144 126 129 243 207 129 142 136 134 123 113 224 260 283 251 251 280 286 268 253 267 263 245 244 249 236 224 226 220 239 279 291 302 326 327 314
167 165 167 175 181 182 178 166 171 172 165 159 141 96 120 180 202 155 161 201 278 39 71 102 109 123 148 153 179 171 114 114 174 134 122 136 149 199 232 222 170 103 112 144 150 165 178 255 228 165 216 198 164 168 152 142 135 168 166 129 145 155 154 197 211 197 227 261 299 291 255 194 208 256 229 227 255 265 249 248 231 231 252 273 296 317 316 311
168 167 168 174 183 188 184 170 176 175 164 148 122 150 174 199 198 159 171 182 102 54 32 67 117 130 159 35 338 194 136 135 171 121 139 169 172 191 191 202 200 140 124 156 196 170 167 242 266 287 279 155 162 228 122 108 110 231 119 102 159 182 136 136 174 172 168 117 300 263 240 214 215 271 263 236 279 283 277 294 273 245 248 273 310 320 322 313
168 168 172 176 185 193 191 182 179 176 164 135 148 182 199 200 185 180 169 143 143 135 101 68 88 122 166 37 315 227 90 104 160 148 177 196 205 198 192 201 195 181 167 158 167 163 158 268 321 346 345 63 168 231 87 105 162 157 121 160 209 163 113 115 175 69 81 170 261 224 246 289 313 288 298 350 284 279 300 328 297 263 285 64 22 360 341 267
164 167 173 179 188 193 194 191 178 170 153 128 179 194 196 167 162 157 140 126 144 140 127 140 172 147 168 173 195 203 174 112 155 164 180 191 222 199 197 225 196 192 200 158 167 201 156 137 341 26 70 6 273 142 58 31 109 123 172 197 178 113 95 111 143 20 43 226 276 270 229 284 311 267 321 12 220 252 276 297 272 262 47 83 106 130 187 226
162 166 166 178 189 195 196 190 171 155 107 141 199 208 178 132 165 149 135 135 137 130 139 164 173 155 172 182 189 186 173 163 171 177 172 185 239 201 182 199 199 192 200 144 151 211 130 122 330 11 137 310 342 91 90 17 42 117 180 167 114 137 167 106 136 154 135 223 279 304 271 264 206 224 303 233 210 227 240 234 214 200 139 123 144 159 194 206
160 164 157 179 191 196 190 177 156 131 99 193 203 216 182 128 170 181 169 144 127 123 161 178 167 129 175 177 166 170 180 176 169 178 183 184 237 216 180 186 198 188 185 142 153 189 117 131 227 319 250 288 7 118 179 190 15 30 100 110 74 129 163 160 149 162 175 193 246 308 320 260 225 217 214 219 219 204 178 175 197 189 163 157 156 156 175 168
161 158 125 175 186 182 169 157 136 130 193 207 203 201 151 132 154 218 211 160 128 130 171 180 164 147 164 165 150 164 181 175 168 184 208 186 205 235 198 186 168 169 157 96 118 156 102 131 172 312 333 190 179 224 195 177 156 114 129 159 171 78 119 163 96 117 140 160 183 252 292 266 249 211 200 222 230 199 170 174 194 189 171 176 167 157 163 145
173 142 115 147 167 163 154 145 151 182 195 228 164 141 142 155 137 117 343 122 111 103 145 147 148 152 156 154 161 166 156 153 174 187 213 200 201 226 215 188 162 153 133 91 129 164 143 142 150 143 207 191 218 270 220 187 176 166 175 182 176 146 123 148 245 229 120 136 169 170 252 268 256 203 206 224 227 219 197 178 181 179 173 180 175 167 162 134
143 129 111 125 161 161 154 155 182 156 156 205 159 125 113 123 124 133 142 90 90 82 97 112 124 146 160 159 158 160 155 160 183 186 205 215 208 216 224 177 151 155 153 143 164 162 126 109 114 148 209 212 258 296 223 222 193 141 197 190 163 153 135 152 204 217 124 105 139 120 252 271 261 208 211 232 231 232 220 184 177 176 177 183 184 187 191 140
74 96 74 96 162 170 161 170 183 151 191 219 199 56 69 101 110 135 171 176 125 108 92 113 148 160 177 162 141 161 169 170 187 195 209 218 211 224 202 148 141 155 157 144 156 152 115 109 109 51 306 314 319 336 22 350 68 143 234 190 161 182 147 148 181 163 136 165 150 96 270 268 274 253 227 246 255 255 244 203 180 172 175 188 193 198 217 250
51 79 63 85 154 180 179 182 191 189 183 151 92 83 55 88 121 138 174 190 171 142 138 153 178 170 171 152 137 168 183 179 196 206 207 195 202 285 149 161 158 162 172 182 178 175 184 162 131 111 40 4 346 342 339 316 240 204 224 187 170 148 101 99 122 105 137 201 161 143 231 254 276 305 312 301 295 280 261 224 188 175 174 185 202 218 234 236
49 71 40 53 91 154 194 194 186 175 159 127 134 143 105 75 109 149 159 161 160 156 151 170 178 116 119 144 119 155 186 176 173 200 202 199 224 5 30 190 184 177 195 264 159 162 180 179 152 153 169 182 197 207 222 227 195 204 208 183 182 160 140 150 135 120 211 222 158 168 230 251 275 304 325 320 291 215 229 232 224 206 186 182 198 228 271 12
67 83 86 40 23 23 28 18 87 146 157 152 151 162 151 139 320 12 127 144 175 143 108 109 154 99 101 153 137 162 198 190 71 162 187 190 212 327 349 248 202 198 333 74 143 145 137 186 187 187 196 200 199 200 175 126 143 189 191 176 179 174 163 146 110 163 202 160 162 222 227 206 231 247 263 260 218 193 192 189 199 210 202 196 198 205 264 3
91 66 121 123 32 31 20 351 35 103 155 170 171 175 163 147 130 95 79 151 184 143 77 60 162 160 166 164 155 178 195 184 86 147 173 170 179 300 333 80 130 331 7 120 162 130 99 206 209 202 216 219 193 182 160 136 166 188 174 166 176 174 164 157 184 205 162 113 232 238 203 202 225 217 222 235 216 206 210 198 195 195 192 201 195 146 111 92
18 54 10 12 45 160 158 209 164 93 124 173 168 155 160 160 164 170 146 34 90 163 127 154 225 202 177 166 160 164 166 165 185 183 150 146 152 105 23 48 145 284 40 109 176 112 133 208 212 195 222 234 171 156 177 160 169 180 169 172 176 170 172 184 208 210 149 166 237 226 174 209 227 199 209 221 202 202 210 201 189 168 166 191 181 138 130 148
20 56 348 357 27 104 78 126 147 136 145 169 167 162 171 177 180 179 128 95 14 277 175 184 219 199 178 173 158 159 171 171 194 210 171 148 156 131 108 112 236 305 103 132 180 141 154 208 198 177 218 239 202 170 185 164 155 168 177 179 172 173 185 194 211 215 186 208 236 199 164 223 226 185 206 219 202 203 191 144 161 165 165 185 184 163 154 163
97 120 45 34 40 47 56 118 145 152 161 171 189 193 181 184 184 180 136 144 166 229 216 194 193 158 159 173 144 167 197 176 180 198 175 155 173 180 178 185 170 114 133 158 175 191 190 214 168 150 208 245 213 177 184 160 154 171 181 183 176 180 193 202 215 217 204 224 240 184 190 253 236 173 206 221 185 186 156 166 196 191 172 177 187 178 162 166
97 90 122 106 81 127 127 121 131 148 172 179 190 183 182 194 183 153 128 176 164 175 182 175 166 132 118 137 128 184 214 172 168 188 172 163 180 181 188 193 163 152 171 178 162 164 182 201 86 123 189 242 233 181 169 101 75 107 177 186 187 189 199 207 214 210 194 215 229 207 240 258 223 159 200 204 159 179 202 206 207 199 186 184 187 183 169 169
101 71 112 107 106 188 171 135 135 169 190 165 170 168 162 186 172 149 161 218 150 167 174 165 157 132 123 153 169 194 174 137 132 145 132 118 111 101 91 126 143 151 166 169 156 157 163 160 132 155 188 244 318 154 138 96 73 254 228 201 195 198 205 208 219 222 202 201 204 208 230 239 184 162 196 198 181 202 216 213 203 198 198 196 190 179 169 168